Regional Weather Roundup
Issued by NWS Mt. Holly, NJ

Home | Current Version | Previous Version | Text Only | Print | Product List | Glossary On
Versions: 1 2 3 4 5 6 7 8 9 10 11 12 13 14 15 16 17 18 19 20 21 22 23 24 25 26 27 28 29 30 31 32 33 34 35 36 37 38 39 40 41 42 43 44 45 46 47 48 49 50
000
ASUS41 KPHI 281112
RWRPHI

REGIONAL WEATHER ROUNDUP
NATIONAL WEATHER SERVICE MOUNT HOLLY NJ
700 AM EDT SAT MAR 28 2015

NOTE:  "FAIR" INDICATES FEW OR NO CLOUDS BELOW 12,000 FEET WITH NO
SIGNIFICANT WEATHER AND/OR OBSTRUCTIONS TO VISIBILITY.

 * = STATION DOES NOT REPORT PRECIPITATION (E.G. RAIN, SNOW, ETC.)
        OR FOG.

NJZ015>026-281200-
SOUTHERN NEW JERSEY

CITY           SKY/WX    TMP DP  RH WIND       PRES   REMARKS
POMONA         CLOUDY    35  23  61 NW12      29.80R WCI  27
RIO GRANDE*    CLOUDY   N/A N/A N/A NW10G17   29.81R
MILLVILLE      CLOUDY    36  25  64 NW8       29.81R WCI  30
WRIGHTSTOWN    CLOUDY    33  21  60 NW16      29.78R WCI  22
MOUNT HOLLY    CLOUDY    34  22  61 NW12G18   29.81R WCI  25
TRENTON        MOCLDY    33  19  56 N6        29.80R WCI  28

$$
NJZ001>014-281200-
NORTHERN NEW JERSEY

CITY           SKY/WX    TMP DP  RH WIND       PRES   REMARKS
SUSSEX         CLEAR     29  16  58 NE6       29.82R WCI  23
ANDOVER*         N/A     28  17  63 VRB5      29.82R WCI  23
MORRISTOWN     PTCLDY    32  21  64 N9G18     29.81R WCI  24
NEWARK         CLOUDY    35  19  52 N17G24    29.79R WCI  25
TETERBORO      CLOUDY    34  19  54 N10G18    29.78R WCI  26
CALDWELL       CLOUDY    32  17  54 VRB6      29.81R WCI  26
SOMERVILLE     MOCLDY    32  17  54 NW10      29.80R WCI  24
ALLAIRE*       CLOUDY    36  19  51 NW14      29.77R WCI  27
TOMS RIVER*    CLOUDY    34  21  60 NW13G18   29.79R WCI  25

$$
PAZ043-044-047-054-055-060>062-066>071-281200-
EASTERN PENNSYLVANIA

CITY           SKY/WX    TMP DP  RH WIND       PRES   REMARKS
PHILADELPHIA   MOCLDY    35  19  52 N16G28    29.83R WCI  25
NORTH PHILA    CLOUDY    35  19  52 N14G22    29.83R WCI  26
BLUE BELL      CLOUDY    34  21  60 CALM      29.82R
DOYLESTOWN     CLOUDY    30  18  60 NW10G17   29.81R WCI  21
QUAKERTOWN*    CLOUDY    30  18  59 N5        29.83R WCI  25
POTTSTOWN      CLOUDY    31  18  58 NW13      29.85R WCI  21
LANCASTER      LGT SNOW  30  25  81 NW14      29.86R WCI  19
COATESVILLE    CLOUDY    32  23  69 N8        29.83R WCI  25
READING        CLOUDY    30  18  60 NW6       29.85R WCI  24
ALLENTOWN      CLOUDY    31  18  58 N15       29.84R WCI  20
MOUNT POCONO   CLOUDY    23  15  71 NW14G20   29.75R WCI  11
HAZLETON       FLURRIES  25  18  74 NW7G20    29.83R WCI  17
WILKES BARRE   CLOUDY    27  15  61 N10       29.85R WCI  17

$$
DEZALL-MDZ008-012-015-019-020-281200-
DELAWARE AND EASTERN MARYLAND

CITY           SKY/WX    TMP DP  RH WIND       PRES   REMARKS
WILMINGTON     CLOUDY    34  21  59 NW15      29.85R WCI  24
DOVER          MIX PCPN  36  30  80 W14       29.83R WCI  27
GEORGETOWN     CLOUDY    36  27  69 NW7       29.83R WCI  30
EASTON         PTCLDY    36  25  64 NW12      29.90R WCI  27
PATUXENT       CLOUDY    35  19  52 NW20G30   29.89R WCI  24
OCEAN CITY     CLOUDY    36  28  73 NW14      29.81R WCI  27
WALLOPS ISLAND MOCLDY    36  26  67 NW14G22   29.84R WCI  27
CAMBRIDGE      PTCLDY    36  21  55 NW12G20   29.86R WCI  27
SALISBURY      CLOUDY    36  24  62 NW16G23   29.84R WCI  26

$$
PAZ001-021-NYZ056-072-MDZ011-DCZ001-281200-
OTHER NEARBY LOCATIONS

CITY           SKY/WX    TMP DP  RH WIND       PRES   REMARKS
HARRISBURG     LGT SNOW  28  22  78 NW20      29.90R FOG     WCI  15
STATE COLLEGE  CLOUDY    21  10  63 NW8       29.92R HAZE    WCI  12
WILLIAMSPORT   CLOUDY    25  13  60 NW7       29.93R WCI  17
BINGHAMTON     CLOUDY    16  11  80 N10       29.85R WCI   4
NEW YORK CITY  CLOUDY    35  19  52 NW7       29.80R WCI  29
BALTIMORE      MOCLDY    32  15  49 W16G25    29.89R WCI  21
WASHINGTON DC  MOCLDY    34  16  47 NW14      29.94R WCI  25

$$


USA.gov is the U.S. government's official web portal to all federal, state and local government web resources and services.